,,,PA_Meas_PMT16A,,PR_Meas_QMR101_102,,RH_Meas_QMH101,,SR_Meas_QMS101,,TA_Meas_QMH101,,GenWind,,GenWind,
date,time,status,PA,status,PR,status,RH,status,SR,status,TA,status,DirAvg,status,SpdAvg,
2014-05-03, 00:00:04,VALID,1010.72,VALID,0,VALID,90.777,VALID,0,VALID,25.6841,VALID,154,VALID,0,
2014-05-03, 00:01:04,VALID,1010.73,VALID,0,VALID,91.8903,VALID,0,VALID,25.6451,VALID,154,VALID,0,
2014-05-03, 00:02:04,VALID,1010.69,VALID,0,VALID,92.4851,VALID,0,VALID,25.5866,VALID,154,VALID,0,
2014-05-03, 00:03:04,VALID,1010.71,VALID,0,VALID,92.0733,VALID,0,VALID,25.5866,VALID,154,VALID,0,
2014-05-03, 00:04:04,VALID,1010.69,VALID,0,VALID,91.8903,VALID,0,VALID,25.4306,VALID,154,VALID,0,
2014-05-03, 00:05:04,VALID,1010.69,VALID,0,VALID,92.5385,VALID,0,VALID,25.3916,VALID,154,VALID,0,
2014-05-03, 00:06:04,VALID,1010.67,VALID,0,VALID,93.995,VALID,0,VALID,25.3526,VALID,154,VALID,0,
2014-05-03, 00:07:04,VALID,1010.64,VALID,0,VALID,96.8089,VALID,0,VALID,25.3526,VALID,154,VALID,0,
2014-05-03, 00:08:04,VALID,1010.64,VALID,0,VALID,98.0214,VALID,0,VALID,25.3136,VALID,154,VALID,0,
2014-05-03, 00:09:04,VALID,1010.6,VALID,0,VALID,98.4561,VALID,0,VALID,25.3136,VALID,154,VALID,0,
2014-05-03, 00:10:04,VALID,1010.58,VALID,0,VALID,99.0814,VALID,0,VALID,25.3117,VALID,154,VALID,0,
2014-05-03, 00:11:04,VALID,1010.56,VALID,0,VALID,99.0357,VALID,0,VALID,25.3136,VALID,154,VALID,0,
2014-05-03, 00:12:04,VALID,1010.55,VALID,0,VALID,98.9823,VALID,0,VALID,25.3331,VALID,154,VALID,0,
2014-05-03, 00:13:04,VALID,1010.52,VALID,0,VALID,99.1805,VALID,0,VALID,25.2922,VALID,154,VALID,0,
2014-05-03, 00:14:04,VALID,1010.54,VALID,0,VALID,99.5771,VALID,0,VALID,25.2727,VALID,154,VALID,0,
2014-05-03, 00:15:04,VALID,1010.49,VALID,0,VALID,100.004,VALID,0,VALID,25.2941,VALID,154,VALID,0,
2014-05-03, 00:16:04,VALID,1010.51,VALID,0,VALID,100.584,VALID,0,VALID,25.2532,VALID,154,VALID,0,
2014-05-03, 00:17:04,VALID,1010.52,VALID,0,VALID,100.98,VALID,0,VALID,25.2551,VALID,154,VALID,0,
2014-05-03, 00:18:04,VALID,1010.49,VALID,0,VALID,101.789,VALID,0,VALID,25.2356,VALID,154,VALID,0,
2014-05-03, 00:19:04,VALID,1010.5,VALID,0,VALID,102.566,VALID,0,VALID,25.2161,VALID,154,VALID,0,
2014-05-03, 00:20:04,VALID,1010.48,VALID,0,VALID,103.375,VALID,0,VALID,25.2161,VALID,154,VALID,0,
2014-05-03, 00:21:04,VALID,1010.5,VALID,0,VALID,103.642,VALID,0,VALID,25.1966,VALID,154,VALID,0,
2014-05-03, 00:22:04,VALID,1010.49,VALID,0,VALID,103.787,VALID,0,VALID,25.1771,VALID,154,VALID,0,
2014-05-03, 00:23:04,VALID,1010.48,VALID,0,VALID,103.947,VALID,0,VALID,25.1966,VALID,154,VALID,0,
2014-05-03, 00:24:04,VALID,1010.47,VALID,0,VALID,103.992,VALID,0,VALID,25.1771,VALID,154,VALID,0,
2014-05-03, 00:25:04,VALID,1010.45,VALID,0,VALID,104,VALID,0,VALID,25.1557,VALID,154,VALID,0,
2014-05-03, 00:26:04,VALID,1010.45,VALID,0,VALID,104,VALID,0,VALID,25.1752,VALID,154,VALID,0,
2014-05-03, 00:27:04,VALID,1010.45,VALID,0,VALID,104,VALID,0,VALID,25.1771,VALID,154,VALID,0,
2014-05-03, 00:28:04,VALID,1010.44,VALID,0,VALID,104,VALID,0,VALID,25.1966,VALID,154,VALID,0,
2014-05-03, 00:29:04,VALID,1010.43,VALID,0,VALID,104,VALID,0,VALID,25.1966,VALID,154,VALID,0,
2014-05-03, 00:30:04,VALID,1010.44,VALID,0,VALID,104,VALID,0,VALID,25.1966,VALID,154,VALID,0,
2014-05-03, 00:31:04,VALID,1010.4,VALID,0,VALID,104,VALID,0,VALID,25.1771,VALID,154,VALID,0,
2014-05-03, 00:32:04,VALID,1010.39,VALID,0,VALID,104,VALID,0,VALID,25.1362,VALID,154,VALID,0,
2014-05-03, 00:33:04,VALID,1010.37,VALID,0,VALID,104,VALID,0,VALID,25.1752,VALID,154,VALID,0,
2014-05-03, 00:34:04,VALID,1010.35,VALID,0,VALID,104,VALID,0.112112,VALID,25.1752,VALID,154,VALID,0,
2014-05-03, 00:35:04,VALID,1010.29,VALID,0,VALID,104,VALID,0.112112,VALID,25.1947,VALID,154,VALID,0,
2014-05-03, 00:36:04,VALID,1010.27,VALID,0,VALID,104,VALID,0.112112,VALID,25.2142,VALID,154,VALID,0,
2014-05-03, 00:37:04,VALID,1010.22,VALID,0,VALID,104,VALID,0.112112,VALID,25.2142,VALID,154,VALID,0,
2014-05-03, 00:38:04,VALID,1010.22,VALID,0,VALID,104,VALID,0,VALID,25.2337,VALID,154,VALID,0,
2014-05-03, 00:39:04,VALID,1010.2,VALID,0,VALID,104,VALID,0.112112,VALID,25.2318,VALID,154,VALID,0,
2014-05-03, 00:40:04,VALID,1010.19,VALID,0,VALID,104,VALID,0.112112,VALID,25.2727,VALID,154,VALID,0,
2014-05-03, 00:41:04,VALID,1010.19,VALID,0,VALID,104,VALID,0.112112,VALID,25.2727,VALID,154,VALID,0,
2014-05-03, 00:42:04,VALID,1010.2,VALID,0,VALID,104,VALID,0,VALID,25.2922,VALID,154,VALID,0,
2014-05-03, 00:43:04,VALID,1010.21,VALID,0,VALID,104,VALID,0.112112,VALID,25.3117,VALID,154,VALID,0,
2014-05-03, 00:44:04,VALID,1010.2,VALID,0,VALID,104,VALID,0.112112,VALID,25.3312,VALID,154,VALID,0,
2014-05-03, 00:45:04,VALID,1010.2,VALID,0,VALID,104,VALID,0.112112,VALID,25.2903,VALID,154,VALID,0,
2014-05-03, 00:46:04,VALID,1010.15,VALID,0,VALID,104,VALID,0.112112,VALID,25.2922,VALID,154,VALID,0,
2014-05-03, 00:47:04,VALID,1010.18,VALID,0,VALID,104,VALID,0.112112,VALID,25.2337,VALID,154,VALID,0,
2014-05-03, 00:48:04,VALID,1010.17,VALID,0,VALID,104,VALID,0.112112,VALID,25.1966,VALID,154,VALID,0,
2014-05-03, 00:49:04,VALID,1010.14,VALID,0,VALID,104,VALID,0,VALID,25.1576,VALID,154,VALID,0,
2014-05-03, 00:50:04,VALID,1010.15,VALID,0,VALID,104,VALID,0,VALID,25.1381,VALID,154,VALID,0,
2014-05-03, 00:51:04,VALID,1010.1,VALID,0,VALID,104,VALID,0,VALID,25.0778,VALID,154,VALID,0,
2014-05-03, 00:52:04,VALID,1010.13,VALID,0,VALID,104,VALID,0,VALID,25.0797,VALID,154,VALID,0,
2014-05-03, 00:53:04,VALID,1010.1,VALID,0,VALID,104,VALID,0,VALID,25.0583,VALID,154,VALID,0,
2014-05-03, 00:54:04,VALID,1010.08,VALID,0,VALID,104,VALID,0,VALID,25.0388,VALID,154,VALID,0,
2014-05-03, 00:55:04,VALID,1010.06,VALID,0,VALID,104,VALID,0,VALID,25.0602,VALID,154,VALID,0,
2014-05-03, 00:56:04,VALID,1010.05,VALID,0,VALID,104,VALID,0,VALID,25.0797,VALID,154,VALID,0,
2014-05-03, 00:57:04,VALID,1010.06,VALID,0,VALID,104,VALID,0,VALID,25.0797,VALID,154,VALID,0,
2014-05-03, 00:58:04,VALID,1010.02,VALID,0,VALID,104,VALID,0,VALID,25.0992,VALID,154,VALID,0,
2014-05-03, 00:59:04,VALID,1010.03,VALID,0,VALID,104,VALID,0,VALID,25.0973,VALID,154,VALID,0,
2014-05-03, 01:00:04,VALID,1010.08,VALID,0,VALID,104,VALID,0,VALID,25.1187,VALID,154,VALID,0,
2014-05-03, 01:01:04,VALID,1010.05,VALID,0,VALID,104,VALID,0,VALID,25.0778,VALID,154,VALID,0,
2014-05-03, 01:02:04,VALID,1010.06,VALID,0,VALID,104,VALID,0,VALID,25.0973,VALID,154,VALID,0,
2014-05-03, 01:03:04,VALID,1010.04,VALID,0,VALID,104,VALID,0,VALID,25.0973,VALID,154,VALID,0,
2014-05-03, 01:04:04,VALID,1010.06,VALID,0,VALID,104,VALID,0,VALID,25.0992,VALID,154,VALID,0,
2014-05-03, 01:05:04,VALID,1010.03,VALID,0,VALID,104,VALID,0,VALID,25.0797,VALID,154,VALID,0,
2014-05-03, 01:06:04,VALID,1010.05,VALID,0,VALID,104,VALID,0,VALID,25.0583,VALID,154,VALID,0,
2014-05-03, 01:07:04,VALID,1010.01,VALID,0,VALID,104,VALID,0,VALID,25.0797,VALID,154,VALID,0,
2014-05-03, 01:08:04,VALID,1009.99,VALID,0,VALID,104,VALID,0,VALID,25.0797,VALID,154,VALID,0,
2014-05-03, 01:09:04,VALID,1009.96,VALID,0,VALID,104,VALID,0,VALID,25.0797,VALID,108,VALID,0,
2014-05-03, 01:10:04,VALID,1009.93,VALID,0,VALID,104,VALID,0,VALID,25.0602,VALID,36,VALID,0,
2014-05-03, 01:11:04,VALID,1009.93,VALID,0,VALID,104,VALID,0,VALID,25.0602,VALID,36,VALID,0,
2014-05-03, 01:12:04,VALID,1009.9,VALID,0,VALID,104,VALID,0,VALID,25.0602,VALID,36,VALID,0,
2014-05-03, 01:13:04,VALID,1009.92,VALID,0,VALID,104,VALID,0,VALID,25.0602,VALID,36,VALID,0,
2014-05-03, 01:14:04,VALID,1009.92,VALID,0,VALID,104,VALID,0,VALID,25.0602,VALID,36,VALID,0,
2014-05-03, 01:15:04,VALID,1009.93,VALID,0,VALID,104,VALID,0,VALID,25.0388,VALID,36,VALID,0,
2014-05-03, 01:16:04,VALID,1009.95,VALID,0,VALID,104,VALID,0,VALID,25.0816,VALID,36,VALID,0,
2014-05-03, 01:17:04,VALID,1009.97,VALID,0,VALID,104,VALID,0,VALID,25.0602,VALID,36,VALID,0,
2014-05-03, 01:18:04,VALID,1009.97,VALID,0,VALID,104,VALID,0,VALID,25.0797,VALID,36,VALID,0,
2014-05-03, 01:19:04,VALID,1009.99,VALID,0,VALID,104,VALID,0,VALID,25.0602,VALID,36,VALID,0,
2014-05-03, 01:20:04,VALID,1009.96,VALID,0,VALID,104,VALID,0,VALID,25.0388,VALID,36,VALID,0,
2014-05-03, 01:21:04,VALID,1009.94,VALID,0,VALID,104,VALID,0,VALID,25.0602,VALID,36,VALID,0,
2014-05-03, 01:22:04,VALID,1009.95,VALID,0,VALID,104,VALID,0,VALID,25.0407,VALID,36,VALID,0,
2014-05-03, 01:23:04,VALID,1009.96,VALID,0,VALID,104,VALID,0,VALID,25.0212,VALID,36,VALID,0,
2014-05-03, 01:24:04,VALID,1009.96,VALID,0,VALID,104,VALID,0,VALID,25.0212,VALID,36,VALID,0,
2014-05-03, 01:25:04,VALID,1009.95,VALID,0,VALID,104,VALID,0,VALID,25.0212,VALID,36,VALID,0,
2014-05-03, 01:26:04,VALID,1009.9,VALID,0,VALID,104,VALID,0,VALID,25.0017,VALID,36,VALID,0,
2014-05-03, 01:27:04,VALID,1009.91,VALID,0,VALID,104,VALID,0,VALID,25.0017,VALID,36,VALID,0,
2014-05-03, 01:28:04,VALID,1009.89,VALID,0,VALID,104,VALID,0,VALID,25.0017,VALID,36,VALID,0,
2014-05-03, 01:29:04,VALID,1009.86,VALID,0,VALID,104,VALID,0,VALID,25.0212,VALID,36,VALID,0,
2014-05-03, 01:30:04,VALID,1009.82,VALID,0,VALID,104,VALID,0,VALID,25.0212,VALID,36,VALID,0,
2014-05-03, 01:31:04,VALID,1009.79,VALID,0,VALID,104,VALID,0,VALID,24.9998,VALID,36,VALID,0,
2014-05-03, 01:32:04,VALID,1009.79,VALID,0,VALID,104,VALID,0,VALID,25.0212,VALID,36,VALID,0,
2014-05-03, 01:33:04,VALID,1009.77,VALID,0,VALID,104,VALID,0,VALID,25.0388,VALID,36,VALID,0,
2014-05-03, 01:34:04,VALID,1009.76,VALID,0,VALID,104,VALID,0,VALID,25.0388,VALID,36,VALID,0,
2014-05-03, 01:35:04,VALID,1009.72,VALID,0,VALID,104,VALID,0.112112,VALID,25.0174,VALID,36,VALID,0,
2014-05-03, 01:36:04,VALID,1009.75,VALID,0,VALID,104,VALID,0.112112,VALID,25.0583,VALID,36,VALID,0,
2014-05-03, 01:37:04,VALID,1009.73,VALID,0,VALID,104,VALID,0.112112,VALID,25.0778,VALID,36,VALID,0,
2014-05-03, 01:38:04,VALID,1009.75,VALID,0,VALID,104,VALID,0.112112,VALID,25.0388,VALID,36,VALID,0,
2014-05-03, 01:39:04,VALID,1009.73,VALID,0,VALID,104,VALID,0.112112,VALID,25.0388,VALID,36,VALID,0,
2014-05-03, 01:40:04,VALID,1009.78,VALID,0,VALID,104,VALID,0.112112,VALID,25.0388,VALID,36,VALID,0,
2014-05-03, 01:41:04,VALID,1009.82,VALID,0,VALID,104,VALID,0.112112,VALID,25.0388,VALID,36,VALID,0,
2014-05-03, 01:42:04,VALID,1009.88,VALID,0,VALID,104,VALID,0.112112,VALID,25.0193,VALID,36,VALID,0,
2014-05-03, 01:43:04,VALID,1009.91,VALID,0,VALID,104,VALID,0.112112,VALID,24.9998,VALID,36,VALID,0,
2014-05-03, 01:44:04,VALID,1009.97,VALID,0,VALID,104,VALID,0.112112,VALID,24.9608,VALID,36,VALID,0,
2014-05-03, 01:45:04,VALID,1010.05,VALID,0,VALID,104,VALID,0,VALID,24.9413,VALID,36,VALID,0,
2014-05-03, 01:46:04,VALID,1010.07,VALID,0,VALID,104,VALID,0.112112,VALID,24.9023,VALID,36,VALID,0,
2014-05-03, 01:47:04,VALID,1010.13,VALID,0,VALID,104,VALID,0,VALID,24.8633,VALID,36,VALID,0,
2014-05-03, 01:48:04,VALID,1010.14,VALID,0,VALID,104,VALID,0.112112,VALID,24.8652,VALID,36,VALID,0,
2014-05-03, 01:49:04,VALID,1010.17,VALID,0,INVALID,109.086,VALID,0,VALID,24.8262,VALID,36,VALID,0,
2014-05-03, 01:50:04,VALID,1010.15,VALID,0,INVALID,109.254,VALID,0,VALID,24.8262,VALID,36,VALID,0,
2014-05-03, 01:51:04,VALID,1010.16,VALID,0,INVALID,109.445,VALID,0,VALID,24.8067,VALID,28,VALID,0,
2014-05-03, 01:52:04,VALID,1010.17,VALID,0,INVALID,109.574,VALID,0,VALID,24.8067,VALID,28,VALID,0,
2014-05-03, 01:53:04,VALID,1010.14,VALID,0,INVALID,109.727,VALID,0,VALID,24.8067,VALID,28,VALID,0,
2014-05-03, 01:54:04,VALID,1010.15,VALID,0,INVALID,109.788,VALID,0,VALID,24.8067,VALID,28,VALID,0,
2014-05-03, 01:55:04,VALID,1010.14,VALID,0,INVALID,109.811,VALID,0,VALID,24.8067,VALID,28,VALID,0,
2014-05-03, 01:56:04,VALID,1010.14,VALID,0,INVALID,109.857,VALID,0,VALID,24.8067,VALID,28,VALID,0,
2014-05-03, 01:57:04,VALID,1010.15,VALID,0,INVALID,109.902,VALID,0,VALID,24.8067,VALID,28,VALID,0,
2014-05-03, 01:58:04,VALID,1010.14,VALID,0,INVALID,109.91,VALID,0,VALID,24.8262,VALID,28,VALID,0,
2014-05-03, 01:59:04,VALID,1010.1,VALID,0,INVALID,109.948,VALID,0,VALID,24.8067,VALID,28,VALID,0,
2014-05-03, 02:00:04,VALID,1010.13,VALID,0,INVALID,109.986,VALID,0,VALID,24.8067,VALID,28,VALID,0,
2014-05-03, 02:01:04,VALID,1010.11,VALID,0,INVALID,109.994,VALID,0,VALID,24.8067,VALID,28,VALID,0,
2014-05-03, 02:02:04,VALID,1010.12,VALID,0,INVALID,110.032,VALID,0,VALID,24.8067,VALID,28,VALID,0,
2014-05-03, 02:03:04,VALID,1010.13,VALID,0,INVALID,110.032,VALID,0,VALID,24.8067,VALID,28,VALID,0,
2014-05-03, 02:04:04,VALID,1010.15,VALID,0,INVALID,110.078,VALID,0,VALID,24.8067,VALID,28,VALID,0,
2014-05-03, 02:05:04,VALID,1010.2,VALID,0,INVALID,110.085,VALID,0,VALID,24.7872,VALID,28,VALID,0,
2014-05-03, 02:06:04,VALID,1010.21,VALID,0,INVALID,110.101,VALID,0,VALID,24.7678,VALID,28,VALID,0,
2014-05-03, 02:07:04,VALID,1010.25,VALID,0,INVALID,110.055,VALID,0,VALID,24.7483,VALID,28,VALID,0,
2014-05-03, 02:08:04,VALID,1010.31,VALID,0,INVALID,110.085,VALID,0,VALID,24.7483,VALID,28,VALID,0,
2014-05-03, 02:09:04,VALID,1010.38,VALID,0,INVALID,110.063,VALID,0,VALID,24.7483,VALID,28,VALID,0,
2014-05-03, 02:10:04,VALID,1010.37,VALID,0,INVALID,110.063,VALID,0,VALID,24.7269,VALID,33,VALID,0,
2014-05-03, 02:11:04,VALID,1010.32,VALID,0,INVALID,110.139,VALID,0,VALID,24.7483,VALID,20,VALID,0,
2014-05-03, 02:12:04,VALID,1010.3,VALID,0,INVALID,110.154,VALID,0,VALID,24.7483,VALID,346,VALID,0,
2014-05-03, 02:13:04,VALID,1010.27,VALID,0,INVALID,110.185,VALID,0,VALID,24.7678,VALID,39,VALID,0,
2014-05-03, 02:14:04,VALID,1010.24,VALID,0,INVALID,110.139,VALID,0,VALID,24.7678,VALID,37,VALID,0,
2014-05-03, 02:15:04,VALID,1010.26,VALID,0,INVALID,110.063,VALID,0,VALID,24.8067,VALID,16,VALID,0,
2014-05-03, 02:16:04,VALID,1010.29,VALID,0,INVALID,109.948,VALID,0,VALID,24.8067,VALID,26,VALID,0,
2014-05-03, 02:17:04,VALID,1010.25,VALID,0,INVALID,109.59,VALID,0,VALID,24.8262,VALID,14,VALID,0,
2014-05-03, 02:18:04,VALID,1010.29,VALID,0,VALID,104,VALID,0,VALID,24.8457,VALID,357,VALID,0,
2014-05-03, 02:19:04,VALID,1010.25,VALID,0,VALID,104,VALID,0,VALID,24.8652,VALID,9,VALID,0,
2014-05-03, 02:20:04,VALID,1010.21,VALID,0,VALID,104,VALID,0,VALID,24.8847,VALID,32,VALID,0,
2014-05-03, 02:21:04,VALID,1010.22,VALID,0,VALID,104,VALID,0,VALID,24.8652,VALID,3,VALID,0,
2014-05-03, 02:22:04,VALID,1010.23,VALID,0,VALID,104,VALID,0,VALID,24.8847,VALID,335,VALID,0,
2014-05-03, 02:23:04,VALID,1010.15,VALID,0,VALID,94.1171,VALID,0,VALID,24.8866,VALID,352,VALID,0,
2014-05-03, 02:24:04,VALID,1010.1,VALID,0,VALID,92.6758,VALID,0,VALID,24.9237,VALID,21,VALID,0,
2014-05-03, 02:25:04,VALID,1010.14,VALID,0,VALID,87.5665,VALID,0,VALID,24.9061,VALID,7,VALID,0,
2014-05-03, 02:26:04,VALID,1010.17,VALID,0,VALID,85.3856,VALID,0,VALID,24.8847,VALID,45,VALID,0,
2014-05-03, 02:27:04,VALID,1010.16,VALID,0,VALID,84.562,VALID,0,VALID,24.9432,VALID,30,VALID,0,
2014-05-03, 02:28:04,VALID,1010.15,VALID,0,VALID,83.7231,VALID,0,VALID,24.9237,VALID,45,VALID,0,
2014-05-03, 02:29:04,VALID,1010.22,VALID,0,VALID,83.6164,VALID,0,VALID,24.9237,VALID,53,VALID,0,
2014-05-03, 02:30:04,VALID,1010.25,VALID,0,VALID,83.7765,VALID,0,VALID,24.8828,VALID,46,VALID,0,
2014-05-03, 02:31:04,VALID,1010.25,VALID,0,VALID,82.7013,VALID,0,VALID,24.8652,VALID,15,VALID,0,
2014-05-03, 02:32:04,VALID,1010.23,VALID,0,VALID,82.7623,VALID,0,VALID,24.8457,VALID,339,VALID,0,
2014-05-03, 02:33:04,VALID,1010.23,VALID,0,VALID,82.2895,VALID,0,VALID,24.8067,VALID,18,VALID,0,
2014-05-03, 02:34:04,VALID,1010.24,VALID,0,VALID,82.0912,VALID,0,VALID,24.7483,VALID,19,VALID,0,
2014-05-03, 02:35:04,VALID,1010.3,VALID,0,VALID,82.1599,VALID,0,VALID,24.6313,VALID,49,VALID,0,
2014-05-03, 02:36:04,VALID,1010.31,VALID,0,VALID,82.198,VALID,0,VALID,24.5338,VALID,8,VALID,0,
2014-05-03, 02:37:04,VALID,1010.35,VALID,0,VALID,82.8767,VALID,0,VALID,24.4559,VALID,57,VALID,0,
2014-05-03, 02:38:04,VALID,1010.35,VALID,0,VALID,81.9387,VALID,0,VALID,24.3389,VALID,54,VALID,0,
2014-05-03, 02:39:04,VALID,1010.34,VALID,0,VALID,82.2285,VALID,0,VALID,24.222,VALID,57,VALID,0,
2014-05-03, 02:40:04,VALID,1010.34,VALID,0,VALID,83.0597,VALID,0,VALID,24.1227,VALID,40,VALID,0,
2014-05-03, 02:41:04,VALID,1010.32,VALID,0,VALID,83.4334,VALID,0,VALID,24.0466,VALID,33,VALID,0,
2014-05-03, 02:42:04,VALID,1010.37,VALID,0,VALID,84.1349,VALID,0,VALID,23.9881,VALID,72,VALID,0,
2014-05-03, 02:43:04,VALID,1010.4,VALID,0,VALID,84.2493,VALID,0,VALID,23.9297,VALID,47,VALID,0,
2014-05-03, 02:44:04,VALID,1010.43,VALID,0,VALID,84.9661,VALID,0,VALID,23.8907,VALID,66,VALID,0,
2014-05-03, 02:45:04,VALID,1010.51,VALID,0,VALID,84.806,VALID,0,VALID,23.8712,VALID,67,VALID,0,
2014-05-03, 02:46:04,VALID,1010.54,VALID,0,VALID,85.0577,VALID,0,VALID,23.873,VALID,80,VALID,0,
2014-05-03, 02:47:04,VALID,1010.57,VALID,0,VALID,85.805,VALID,0,VALID,23.8127,VALID,72,VALID,0,
2014-05-03, 02:48:04,VALID,1010.58,VALID,0.5,VALID,87.8487,VALID,0,VALID,23.8127,VALID,49,VALID,0,
2014-05-03, 02:49:05,VALID,1010.57,VALID,0.5,VALID,93.7053,VALID,0.112112,VALID,23.3433,VALID,33,VALID,0,
2014-05-03, 02:50:05,VALID,1010.5,VALID,1,VALID,100.82,VALID,0.112112,VALID,23.1485,VALID,30,VALID,0,
2014-05-03, 02:51:05,VALID,1010.5,VALID,1,VALID,104,VALID,0.112112,VALID,22.9342,VALID,69,VALID,0,
2014-05-03, 02:52:05,VALID,1010.42,VALID,1,VALID,104,VALID,0.112112,VALID,22.7978,VALID,55,VALID,0,
2014-05-03, 02:53:05,VALID,1010.38,VALID,1.5,INVALID,109.186,VALID,0,VALID,22.6614,VALID,37,VALID,0,
2014-05-03, 02:54:05,VALID,1010.35,VALID,1,INVALID,109.498,VALID,0.112112,VALID,22.5234,VALID,30,VALID,0,
2014-05-03, 02:55:05,VALID,1010.4,VALID,1.5,INVALID,109.742,VALID,0,VALID,22.4667,VALID,41,VALID,0,
2014-05-03, 02:56:05,VALID,1010.35,VALID,0.5,INVALID,109.91,VALID,0.112112,VALID,22.3887,VALID,37,VALID,0,
2014-05-03, 02:57:05,VALID,1010.37,VALID,1,INVALID,110.032,VALID,0.112112,VALID,22.3303,VALID,53,VALID,0,
2014-05-03, 02:58:05,VALID,1010.33,VALID,0.5,INVALID,110.139,VALID,0.112112,VALID,22.2719,VALID,38,VALID,0,
2014-05-03, 02:59:05,VALID,1010.39,VALID,0.5,INVALID,110.207,VALID,0,VALID,22.2524,VALID,39,VALID,0,
2014-05-03, 03:00:05,VALID,1010.36,VALID,0,INVALID,110.268,VALID,0.112112,VALID,22.2329,VALID,83,VALID,0,
2014-05-03, 03:01:05,VALID,1010.36,VALID,0,INVALID,110.337,VALID,0.112112,VALID,22.2134,VALID,67,VALID,0,
2014-05-03, 03:02:05,VALID,1010.38,VALID,0.5,INVALID,110.345,VALID,0.112112,VALID,22.2134,VALID,80,VALID,0,
2014-05-03, 03:03:05,VALID,1010.44,VALID,0,INVALID,110.406,VALID,0.112112,VALID,22.194,VALID,85,VALID,0,
2014-05-03, 03:04:05,VALID,1010.44,VALID,0,INVALID,110.368,VALID,0,VALID,22.155,VALID,50,VALID,0,
2014-05-03, 03:05:05,VALID,1010.44,VALID,0.5,INVALID,110.329,VALID,0.112112,VALID,22.1355,VALID,67,VALID,0,
2014-05-03, 03:06:05,VALID,1010.49,VALID,0,INVALID,110.268,VALID,0.112112,VALID,22.1339,VALID,53,VALID,0,
2014-05-03, 03:07:05,VALID,1010.42,VALID,0,INVALID,110.192,VALID,0.112112,VALID,22.1745,VALID,60,VALID,0,
2014-05-03, 03:08:05,VALID,1010.43,VALID,0,INVALID,110.131,VALID,0.112112,VALID,22.2134,VALID,51,VALID,0,
2014-05-03, 03:09:05,VALID,1010.39,VALID,0,INVALID,110.047,VALID,0.112112,VALID,22.2719,VALID,70,VALID,0,
2014-05-03, 03:10:05,VALID,1010.41,VALID,0,INVALID,109.994,VALID,0.112112,VALID,22.3108,VALID,71,VALID,0,
2014-05-03, 03:11:05,VALID,1010.4,VALID,0,INVALID,109.956,VALID,0.112112,VALID,22.3091,VALID,57,VALID,0,
2014-05-03, 03:12:05,VALID,1010.37,VALID,0,INVALID,109.879,VALID,0.112112,VALID,22.3693,VALID,76,VALID,0,
2014-05-03, 03:13:05,VALID,1010.37,VALID,0,INVALID,109.841,VALID,0.224224,VALID,22.3676,VALID,72,VALID,0,
2014-05-03, 03:14:05,VALID,1010.36,VALID,0,INVALID,109.841,VALID,0.112112,VALID,22.4082,VALID,73,VALID,0,
2014-05-03, 03:15:05,VALID,1010.36,VALID,0,INVALID,109.811,VALID,0.112112,VALID,22.4277,VALID,84,VALID,0,
2014-05-03, 03:16:05,VALID,1010.37,VALID,0,INVALID,109.796,VALID,0.112112,VALID,22.4472,VALID,36,VALID,0,
2014-05-03, 03:17:05,VALID,1010.39,VALID,0,INVALID,109.773,VALID,0.112112,VALID,22.4472,VALID,69,VALID,0,
2014-05-03, 03:18:05,VALID,1010.4,VALID,0,INVALID,109.765,VALID,0.112112,VALID,22.4684,VALID,79,VALID,0,
2014-05-03, 03:19:05,VALID,1010.39,VALID,0.5,INVALID,109.727,VALID,0.112112,VALID,22.4878,VALID,96,VALID,0,
2014-05-03, 03:20:05,VALID,1010.46,VALID,0,INVALID,109.75,VALID,0,VALID,22.4878,VALID,81,VALID,0,
2014-05-03, 03:21:05,VALID,1010.48,VALID,0,INVALID,109.696,VALID,0,VALID,22.4861,VALID,97,VALID,0,
2014-05-03, 03:22:05,VALID,1010.5,VALID,0,INVALID,109.712,VALID,0,VALID,22.5073,VALID,52,VALID,0,
2014-05-03, 03:23:05,VALID,1010.49,VALID,0,INVALID,109.689,VALID,0,VALID,22.4861,VALID,47,VALID,0,
2014-05-03, 03:24:05,VALID,1010.47,VALID,0,INVALID,109.643,VALID,0,VALID,22.5056,VALID,69,VALID,0,
2014-05-03, 03:25:05,VALID,1010.4,VALID,0,INVALID,109.635,VALID,0,VALID,22.5056,VALID,52,VALID,0,
2014-05-03, 03:26:05,VALID,1010.35,VALID,0,INVALID,109.59,VALID,0.112112,VALID,22.5251,VALID,51,VALID,0,
2014-05-03, 03:27:05,VALID,1010.3,VALID,0,INVALID,109.513,VALID,0,VALID,22.5446,VALID,80,VALID,0,
2014-05-03, 03:28:05,VALID,1010.26,VALID,0,INVALID,109.559,VALID,0,VALID,22.5446,VALID,43,VALID,0,
2014-05-03, 03:29:05,VALID,1010.24,VALID,0,INVALID,109.498,VALID,0,VALID,22.6047,VALID,33,VALID,0,
2014-05-03, 03:30:05,VALID,1010.25,VALID,0,INVALID,109.475,VALID,0,VALID,22.5835,VALID,70,VALID,0,
2014-05-03, 03:31:05,VALID,1010.22,VALID,0,INVALID,109.46,VALID,0,VALID,22.6242,VALID,76,VALID,0,
2014-05-03, 03:32:05,VALID,1010.23,VALID,0,INVALID,109.46,VALID,0,VALID,22.6437,VALID,37,VALID,0,
2014-05-03, 03:33:05,VALID,1010.21,VALID,0,INVALID,109.468,VALID,0,VALID,22.6437,VALID,68,VALID,0,
2014-05-03, 03:34:05,VALID,1010.23,VALID,0,INVALID,109.407,VALID,0,VALID,22.6614,VALID,43,VALID,0,
2014-05-03, 03:35:05,VALID,1010.25,VALID,0,INVALID,109.399,VALID,0,VALID,22.7021,VALID,86,VALID,0,
2014-05-03, 03:36:05,VALID,1010.28,VALID,0,INVALID,109.391,VALID,0,VALID,22.7216,VALID,88,VALID,0,
2014-05-03, 03:37:05,VALID,1010.29,VALID,0,INVALID,109.399,VALID,0,VALID,22.7411,VALID,99,VALID,0,
2014-05-03, 03:38:05,VALID,1010.33,VALID,0,INVALID,109.452,VALID,0,VALID,22.7004,VALID,70,VALID,0,
2014-05-03, 03:39:05,VALID,1010.34,VALID,0,INVALID,109.414,VALID,0,VALID,22.7411,VALID,67,VALID,0,
2014-05-03, 03:40:05,VALID,1010.4,VALID,0,INVALID,109.422,VALID,0,VALID,22.7411,VALID,75,VALID,0,
2014-05-03, 03:41:05,VALID,1010.37,VALID,0,INVALID,109.46,VALID,0,VALID,22.7216,VALID,91,VALID,0,
2014-05-03, 03:42:05,VALID,1010.38,VALID,0,INVALID,109.513,VALID,0,VALID,22.7216,VALID,77,VALID,0,
2014-05-03, 03:43:05,VALID,1010.38,VALID,0,INVALID,109.521,VALID,0,VALID,22.7411,VALID,80,VALID,0,
2014-05-03, 03:44:05,VALID,1010.38,VALID,0,INVALID,109.582,VALID,0,VALID,22.6809,VALID,85,VALID,0,
2014-05-03, 03:45:05,VALID,1010.38,VALID,0,INVALID,109.643,VALID,0,VALID,22.7021,VALID,85,VALID,0,
2014-05-03, 03:46:05,VALID,1010.36,VALID,0,INVALID,109.727,VALID,0,VALID,22.642,VALID,74,VALID,0,
2014-05-03, 03:47:05,VALID,1010.39,VALID,0,INVALID,109.704,VALID,0,VALID,22.6826,VALID,87,VALID,0,
2014-05-03, 03:48:05,VALID,1010.41,VALID,0,INVALID,109.674,VALID,0,VALID,22.7021,VALID,57,VALID,0,
2014-05-03, 03:49:05,VALID,1010.44,VALID,0,INVALID,109.658,VALID,0,VALID,22.6437,VALID,64,VALID,0,
2014-05-03, 03:50:05,VALID,1010.39,VALID,0,INVALID,109.75,VALID,0,VALID,22.6047,VALID,90,VALID,0,
2014-05-03, 03:51:05,VALID,1010.39,VALID,0,INVALID,109.757,VALID,0,VALID,22.5852,VALID,89,VALID,0,
2014-05-03, 03:52:05,VALID,1010.39,VALID,0,INVALID,109.773,VALID,0,VALID,22.6047,VALID,98,VALID,0,
2014-05-03, 03:53:05,VALID,1010.38,VALID,0,INVALID,109.826,VALID,0.112112,VALID,22.6047,VALID,79,VALID,0,
2014-05-03, 03:54:05,VALID,1010.39,VALID,0,INVALID,109.796,VALID,0,VALID,22.603,VALID,93,VALID,0,
2014-05-03, 03:55:05,VALID,1010.35,VALID,0,INVALID,109.811,VALID,0.112112,VALID,22.6225,VALID,95,VALID,0,
2014-05-03, 03:56:05,VALID,1010.33,VALID,0,INVALID,109.796,VALID,0,VALID,22.6437,VALID,101,VALID,0,
2014-05-03, 03:57:05,VALID,1010.31,VALID,0,INVALID,109.78,VALID,0,VALID,22.642,VALID,107,VALID,0,
2014-05-03, 03:58:05,VALID,1010.27,VALID,0,INVALID,109.765,VALID,0,VALID,22.642,VALID,106,VALID,0,
2014-05-03, 03:59:05,VALID,1010.28,VALID,0,INVALID,109.818,VALID,0,VALID,22.6225,VALID,107,VALID,0,